Dewpoint
36 37 39 38 37 37 37 36 32 27 27 29 29 30 31 36 38 38 38 39 39 37 37 36 33 30 25 21 18 18 18 17 15 14 13 13 14 14 14 15 15 16 15 16
35 37 38 38 39 37 37 35 34 33 33 29 32 32 32 36 38 38 38 39 39 37 36 35 32 28 23 20 18 17 17 16 15 14 12 14 13 13 13 14 14 14 14 16
28 37 37 35 36 37 37 36 34 32 33 30 31 32 32 35 37 38 38 38 39 37 36 34 30 25 21 17 16 15 14 14 13 13 12 13 12 11 12 12 13 13 13 14
30 28 23 26 33 37 37 36 36 35 33 32 32 35 35 35 36 37 38 39 39 38 36 32 27 24 17 16 15 15 13 12 12 12 11 11 11 11 10 11 13 13 14 13
29 29 28 27 27 29 30 30 33 35 33 34 35 35 35 37 37 37 38 39 40 38 33 28 24 18 16 14 15 13 11 10 9 9 9 10 10 10 10 12 15 14 13 12
32 25 24 27 29 29 30 27 33 32 33 34 33 31 34 37 39 38 37 36 32 30 26 20 17 15 13 12 11 10 9 10 9 10 10 9 9 9 12 15 15 14 13 12
33 32 31 32 30 31 25 26 34 33 34 34 33 33 36 37 35 34 32 30 29 25 21 19 17 14 13 10 9 10 10 10 10 10 9 9 10 13 15 15 14 13 11 10
35 33 28 32 29 26 32 34 36 36 36 35 36 36 36 34 33 33 31 29 25 22 20 20 16 12 9 8 10 11 11 10 10 9 8 11 15 16 15 15 13 11 10 11
34 34 36 35 34 36 36 35 36 36 36 35 35 34 34 32 31 30 29 24 22 20 18 17 12 10 8 9 11 11 9 9 8 8 10 13 14 15 15 13 11 11 11 12
33 33 33 34 35 36 37 37 37 36 36 35 34 33 32 32 30 29 26 23 21 17 14 12 11 10 10 11 11 9 8 7 8 11 15 13 14 14 14 12 12 12 14 16
31 34 34 34 35 36 36 36 36 37 36 35 34 33 32 31 30 29 28 24 21 18 16 12 10 10 10 11 10 9 8 9 12 13 14 14 14 13 14 14 17 16 17 17
31 33 31 33 36 36 35 36 36 36 36 36 35 35 34 33 31 30 28 26 25 21 17 13 10 11 11 12 11 10 10 12 13 15 15 15 13 14 19 20 21 21 21 20
33 35 35 36 36 36 36 36 36 36 36 35 36 36 35 34 32 32 29 27 23 19 15 11 11 11 12 13 12 12 12 12 15 16 14 13 14 14 14 16 19 20 20 21
36 35 35 35 35 36 36 36 36 34 34 35 35 35 34 33 31 28 27 24 20 15 13 11 11 11 12 13 13 13 14 19 17 15 15 16 15 16 15 14 13 13 17 19
36 36 36 36 35 34 34 33 33 32 31 31 33 34 31 28 26 23 20 16 14 13 12 11 11 11 13 14 14 15 15 16 16 17 16 18 15 15 15 15 14 13 14 16
36 36 36 34 33 32 31 31 31 31 31 30 30 29 28 24 19 17 15 14 13 12 12 12 12 14 16 16 16 16 16 19 19 16 15 15 15 15 15 14 13 12 12 12
34 32 33 31 32 30 29 29 30 30 30 31 30 26 21 19 17 16 14 14 14 13 14 15 15 16 17 16 16 16 16 16 20 15 16 16 16 15 14 12 12 12 12 13
36 35 35 33 31 28 29 29 30 30 31 31 28 25 21 19 17 15 13 13 13 14 15 16 17 17 17 17 17 17 17 17 17 17 18 16 14 12 12 11 12 12 13 15
36 35 33 28 28 29 29 30 31 31 32 31 29 26 25 22 17 14 12 11 11 12 15 18 20 18 16 16 18 18 18 18 18 17 14 14 12 11 11 12 13 14 15 14
33 29 29 29 29 30 30 31 32 31 31 30 27 23 17 15 13 12 12 14 15 15 17 18 16 15 14 16 21 19 18 18 16 13 11 11 10 11 11 15 15 14 15 14
28 28 28 29 29 30 30 30 30 29 29 28 25 20 15 13 13 13 13 13 16 18 18 18 16 16 17 19 19 17 17 14 11 11 11 11 11 13 14 15 15 16 16 15
26 27 27 27 27 26 26 25 23 20 19 17 15 14 13 15 15 16 15 15 18 20 16 14 14 18 18 21 16 15 13 12 11 11 11 12 13 14 15 17 17 16 16 16
26 25 25 24 23 21 20 20 19 17 16 15 14 14 14 15 14 14 14 16 15 17 13 12 15 18 20 15 14 12 12 12 11 12 13 14 15 15 16 16 16 15 15 16
24 23 21 20 18 17 16 14 15 15 14 14 15 15 13 12 12 12 14 15 16 13 12 14 16 17 17 12 12 12 12 12 13 12 13 17 14 14 15 15 15 15 14 14
24 23 22 20 18 16 16 16 15 14 13 12 10 10 11 12 11 9 8 9 13 11 8 13 15 15 12 12 12 12 13 12 9 14 13 14 16 15 14 14 13 14 15 13
24 23 23 21 18 16 15 15 13 13 12 10 9 8 8 9 9 7 7 9 8 10 8 9 11 12 12 12 12 12 12 12 12 13 15 15 14 12 12 12 12 12 13 13
22 22 19 18 17 17 15 15 14 15 13 9 7 6 5 6 7 7 8 5 7 7 8 9 10 11 11 11 9 9 11 12 13 14 13 12 12 12 12 12 13 13 13 13
Lifted_Index
1 1 1 1 1 0 0 0 0 0 1 2 2 3 3 3 3 4 4 4 5 5 6 6 6 6 7 7 7 8 8 8 9 10 10 11 12 14 17 18 19 19 19 19
1 1 1 1 0 0 0 0 0 0 1 1 2 2 2 2 3 4 4 4 5 5 5 6 6 6 6 7 7 8 8 9 9 10 10 11 12 15 17 19 19 19 19 19
1 0 0 0 0 0 0 0 0 0 0 1 1 2 2 2 3 4 4 4 4 5 5 5 6 6 6 7 8 8 9 9 10 10 11 12 14 16 18 18 18 18 19 19
1 1 0 1 1 1 1 1 1 1 1 1 1 2 2 2 3 3 4 4 4 5 5 5 6 6 6 7 8 9 9 9 10 11 12 13 15 17 18 18 18 18 19 20
1 1 1 1 1 1 1 1 1 1 1 1 2 2 2 3 3 3 4 4 5 5 5 5 6 6 7 8 8 9 9 10 11 12 13 15 17 18 18 18 18 19 19 20
2 1 1 1 2 2 2 2 2 2 2 2 2 2 2 3 4 4 4 4 5 5 5 5 6 6 7 8 8 9 10 11 12 13 15 17 17 17 17 18 18 19 20 20
2 1 1 1 2 2 2 2 2 2 2 2 2 2 3 3 4 4 5 5 5 5 6 6 7 7 8 8 9 10 11 12 14 16 17 18 17 17 18 18 19 19 20 20
2 1 1 1 2 2 2 2 3 3 3 2 2 3 3 3 4 4 5 6 6 7 8 8 8 9 9 9 10 11 12 14 16 18 18 18 17 17 18 19 19 19 20 20
1 1 1 1 2 2 2 3 3 3 3 3 3 3 3 4 4 5 6 7 9 9 10 10 10 10 10 11 12 13 14 16 18 18 18 17 17 17 18 19 19 20 20 20
1 1 1 1 1 2 3 3 3 4 4 4 3 4 4 4 5 7 8 10 11 11 11 11 11 11 11 12 13 14 16 18 18 18 17 17 18 18 19 19 20 20 21 21
1 1 1 1 1 2 2 3 4 4 4 4 4 5 5 6 7 9 10 11 12 12 12 12 12 12 12 13 15 17 18 18 18 17 17 17 18 19 20 21 21 21 21 21
1 1 1 1 2 2 3 3 4 4 4 5 5 6 6 8 9 11 12 12 12 12 12 12 12 12 14 15 17 18 18 18 17 17 17 17 18 19 20 21 21 21 20 20
1 1 2 2 2 3 3 4 4 5 5 6 6 8 9 10 11 12 13 13 12 12 12 12 13 13 15 17 18 18 18 18 17 17 17 17 18 19 20 20 21 20 20 19
2 2 2 2 3 3 4 5 5 6 6 7 8 10 11 12 13 13 13 13 13 13 13 13 13 15 17 18 19 19 18 18 18 17 18 18 19 20 20 20 19 19 19 18
2 2 3 3 3 4 5 5 6 6 6 8 9 11 12 13 14 14 14 14 13 13 13 14 14 16 18 19 19 19 19 18 18 18 19 20 20 21 20 20 19 18 17 17
3 3 3 3 3 4 5 6 6 6 7 8 10 12 13 14 14 14 14 14 14 14 14 15 16 18 19 19 19 19 18 18 18 19 20 21 21 20 20 19 18 17 17 16
4 4 4 4 4 4 5 6 7 7 8 10 12 13 13 14 14 13 13 14 14 14 15 16 18 19 19 19 19 19 18 19 19 20 21 21 20 20 19 18 17 16 16 16
4 4 5 5 5 5 6 7 7 8 10 12 13 13 13 13 13 13 13 14 14 14 16 18 19 19 19 19 19 19 19 20 20 21 21 20 20 19 18 18 17 16 16 16
4 5 5 6 6 6 6 7 9 10 12 13 13 13 13 13 13 13 13 13 14 15 17 18 19 19 19 19 19 20 20 21 21 21 21 20 19 18 18 17 16 16 16 15
5 5 6 6 6 7 8 9 10 12 13 13 13 13 13 13 13 13 13 13 14 16 18 19 19 19 19 20 20 21 21 21 21 21 20 19 18 17 17 16 16 16 15 15
5 6 6 6 7 8 10 11 12 12 13 13 13 13 13 13 13 13 13 14 16 17 19 19 19 19 20 21 21 22 22 21 21 20 19 18 17 17 16 16 16 15 15 15
6 6 6 7 8 10 11 12 13 13 13 13 13 13 13 13 13 13 14 15 17 18 19 19 20 20 21 22 22 22 22 21 20 20 18 17 17 16 16 16 15 15 16 16
6 7 7 9 10 11 12 13 13 13 13 13 13 13 13 13 13 14 15 16 18 18 19 20 21 22 22 22 22 22 21 21 20 19 18 17 16 16 16 16 16 16 16 17
8 8 9 11 11 12 12 12 13 13 13 13 13 13 14 14 14 15 16 17 19 19 20 21 22 22 22 22 22 21 21 20 19 18 17 17 16 16 16 16 16 16 17 17
9 10 11 12 12 12 12 12 13 13 13 13 13 14 15 15 16 17 18 19 20 21 21 22 22 22 22 21 21 20 20 19 18 17 17 16 16 16 17 17 17 17 17 18
11 11 12 12 12 12 12 13 13 13 13 13 13 14 15 16 17 18 19 20 21 21 21 22 22 21 21 21 20 19 18 17 17 16 16 16 16 17 17 18 18 18 18 18
11 12 12 12 12 13 13 13 13 13 13 13 14 15 16 17 18 19 20 20 21 21 21 21 21 21 21 20 19 19 18 17 16 16 16 16 17 17 18 18 18 18 18 19